Regional Weather Roundup
Issued by NWS

Home | Current Version | Previous Version | Graphics & Text | Print | Product List | Glossary On
Versions: 1 2 3 4 5 6 7 8 9 10 11 12 13 14 15 16 17 18 19 20 21 22 23 24 25 26 27 28 29 30 31 32 33 34 35 36 37 38 39 40 41 42 43 44 45 46 47 48 49 50
066
ASUS44 KLIX 010707
RWRLA
LOUISIANA WEATHER ROUNDUP
NATIONAL WEATHER SERVICE NEW ORLEANS LA
200 AM CDT WED APR 01 2015

NOTE: "FAIR" INDICATES FEW OR NO CLOUDS BELOW 12,000 FEET WITH NO
      SIGNIFICANT WEATHER AND/OR OBSTRUCTIONS TO VISIBILITY.
      SKY/WX - SKY CONDITION AND SIGNIFICANT WEATHER.
      TMP - AIR TEMPERATURE.    DP   - DEWPOINT TEMPERATURE.
      RH  - RELATIVE HUMIDITY.  PRES - PRESSURE.
      HX  - HEAT INDEX.         WCI  - WIND CHILL INDEX.

*  THESE STATIONS ARE NOT NWS OR FAA STATIONS AND ARE NOT UNDER
   NWS QUALITY CONTROL.

LAZ040-048-061>063-065-066-069-010800-
SOUTHEAST LOUISIANA

CITY           SKY/WX    TMP DP  RH WIND       PRES   REMARKS
N.O. AUDUBON     N/A     64  64 100 MISG        N/A
N.O. INTL ARPT PTCLDY    65  62  90 S8        30.04F
N.O. LAKEFRONT PTCLDY    69  63  81 SW7       30.04F
SLIDELL        MOCLDY    66  64  93 SW5       30.03F
BATON ROUGE    PTCLDY    64  62  93 S5        30.03F
BOOTHVILLE     CLEAR     71  67  87 SW5       30.06F
BELLE CHASSE   FOG       60  58  92 CALM      30.04F VSB 3/4
BOGALUSA*        N/A     63  59  86 CALM      30.04F
GALLIANO*      PTSUNNY   57  56  98 CALM      30.05F
NEW ROADS*     FAIR      63  60  90 S5        30.02F
GONZALES*      FAIR      62  62 100 S3        30.03F
HAMMOND*       PTCLDY    64  61  88 CALM      30.04F
HOUMA*         FOG       59  59 100 CALM      30.04F VSB 1/4
PORT FOURCHON* SUNNY     72  66  83 SW3       30.08F

$$

LAZ041-044-053-054-010800-
SOUTHWEST LOUISIANA

CITY           SKY/WX    TMP DP  RH WIND       PRES   REMARKS
LAKE CHARLES   CLEAR     67  65  93 S5        30.00S
LAFAYETTE      PTCLDY    65  63  93 CALM      30.02F FOG
PATTERSON      CLEAR     61  59  94 CALM      30.05S
SALT POINT       N/A     66  65  96 SE3       30.02F
NEW IBERIA     PTCLDY    64  63  96 E6        30.03S FOG
CHENAULT AIRPK CLEAR     64  64  99 CALM      30.01R FOG

$$

LAZ027-028-010800-
CENTRAL LOUISIANA

CITY           SKY/WX    TMP DP  RH WIND       PRES   REMARKS
FORT POLK      CLOUDY    66  64  94 S7        30.00S FOG
ALEXANDRIA INT PTCLDY    65  63  93 S7        29.98F
ALEXANDRIA     CLEAR     63  61  93 SW5       30.00F

$$

LAZ001-002-010800-
NORTHWEST LOUISIANA

CITY           SKY/WX    TMP DP  RH WIND       PRES   REMARKS
SHREVEPORT     PTCLDY    64  59  83 S7        29.96S
BARKSDALE AFB  CLEAR     63  59  86 S6        29.96S
DTN SHREVEPORT CLEAR     65  58  78 S6        29.97S

$$

LAZ014-016-010800-
NORTHEAST LOUISIANA

CITY           SKY/WX    TMP DP  RH WIND       PRES   REMARKS
MONROE         CLEAR     66  62  87 SW8       29.98S
TALLULAH       CLEAR     68  58  70 SW7       29.99S

$$




USA.gov is the U.S. government's official web portal to all federal, state and local government web resources and services.